Marshalltown, IA

8:16 PM CST on January 18, 2017 (GMT -0600)
Marshalltown Municipal

Weather History for KMIW - April, 2012

Change the Weather History Date:

Wednesday, April 18, 2012

  Actual Average Record
Temperature  
Mean Temperature 61 °F 50 °F  
Max Temperature 71 °F 62 °F 84 °F (2002)
Min Temperature 51 °F 38 °F 26 °F (2001)
Degree Days  
Heating Degree Days 4 15  
Month to date heating degree days 222 328  
Since 1 July heating degree days 5267 6629  
Cooling Degree Days 0 0  
Month to date cooling degree days 1 0  
Year to date cooling degree days 19 0  
Growing Degree Days 11 (Base 50)    
Moisture  
Dew Point 49 °F    
Average Humidity 67    
Maximum Humidity 89    
Minimum Humidity 44    
Precipitation  
Precipitation 0.11 in 0.13 in 1.29 in (2008)
Month to date precipitation 2.21 1.67  
Year to date precipitation 4.40  
Sea Level Pressure  
Sea Level Pressure 30.00 in    
Wind  
Wind Speed 12 mph (WSW)    
Max Wind Speed 24 mph    
Max Gust Speed 33 mph    
Visibility 10 miles    
Events Rain    
T = Trace of Precipitation, MM = Missing Value Source: NWS Daily Summary

Daily Weather History Graph

Daily Weather History Graph

Search for Another Location

Airport or City:

Trip Planner

Search our weather history database for the weather conditions in past years. The results will help you decide how hot, cold, wet, or windy it might be!

Date:

Astronomy

Apr. 18, 2012 Rise Set
Actual Time 6:25 AM CDT 7:56 PM CDT
Civil Twilight 5:56 AM CDT 8:26 PM CDT
Nautical Twilight 5:20 AM CDT 9:01 PM CDT
Astronomical Twilight 4:43 AM CDT 9:39 PM CDT
Moon 4:53 AM CDT (4/18) 5:46 PM CDT (4/18)
Length of Visible Light 14h 30m
Length of Day
13h 31m
Waning Crescent, 6% of the Moon is Illuminated
Apr 18
Waning Crescent
Apr 21
New
Apr 29
First Quarter
May 5
Full
May 12
Last Quarter

Hourly Weather History & Observations

Time (CDT) Temp. Dew Point Humidity Pressure Visibility Wind Dir Wind Speed Gust Speed Precip Events Conditions
12:53 AM 52.0 °F 43.0 °F 71% 30.09 in 10.0 mi SSE 12.7 mph - N/A   Clear
1:53 AM 55.0 °F 44.1 °F 67% 30.06 in 10.0 mi South 16.1 mph - N/A   Clear
2:53 AM 54.0 °F 44.1 °F 69% 30.04 in 10.0 mi South 13.8 mph - N/A   Clear
3:53 AM 53.1 °F 44.1 °F 71% 30.03 in 10.0 mi South 13.8 mph - N/A   Clear
4:53 AM 54.0 °F 44.1 °F 69% 30.03 in 10.0 mi South 13.8 mph - N/A   Mostly Cloudy
5:53 AM 54.0 °F 45.0 °F 72% 30.10 in 10.0 mi NW 20.7 mph 25.3 mph N/A   Partly Cloudy
6:03 AM 55.4 °F 44.6 °F 67% 30.10 in 10.0 mi WNW 18.4 mph 31.1 mph N/A   Mostly Cloudy
6:53 AM 53.1 °F 45.0 °F 74% 30.08 in 10.0 mi SW 9.2 mph - 0.00 in Rain Light Rain
7:25 AM 53.6 °F 48.2 °F 82% 30.07 in 7.0 mi SSW 11.5 mph - 0.10 in Rain Light Rain
7:53 AM 54.0 °F 50.0 °F 86% 30.05 in 10.0 mi SSW 11.5 mph - 0.11 in Rain Light Rain
8:53 AM 55.9 °F 50.0 °F 80% 30.02 in 10.0 mi SSW 16.1 mph - 0.00 in   Overcast
9:53 AM 57.9 °F 50.0 °F 75% 30.01 in 10.0 mi SW 18.4 mph 29.9 mph N/A   Overcast
10:53 AM 63.0 °F 54.0 °F 72% 30.00 in 10.0 mi SW 18.4 mph 27.6 mph N/A   Partly Cloudy
11:53 AM 66.0 °F 54.0 °F 65% 29.99 in 10.0 mi WSW 19.6 mph - N/A   Scattered Clouds
12:08 PM 64.4 °F 55.4 °F 73% 29.99 in 10.0 mi West 13.8 mph - N/A   Mostly Cloudy
12:48 PM 66.2 °F 55.4 °F 68% 29.98 in 10.0 mi West 15.0 mph - N/A   Mostly Cloudy
12:53 PM 68.0 °F 55.0 °F 63% 29.98 in 10.0 mi WSW 17.3 mph 23.0 mph N/A   Mostly Cloudy
1:53 PM 68.0 °F 55.0 °F 63% 29.96 in 10.0 mi West 11.5 mph - N/A   Mostly Cloudy
2:53 PM 69.1 °F 53.1 °F 57% 29.94 in 10.0 mi West 13.8 mph - N/A   Mostly Cloudy
3:53 PM 70.0 °F 51.1 °F 51% 29.93 in 10.0 mi WNW 12.7 mph - N/A   Partly Cloudy
4:53 PM 70.0 °F 50.0 °F 49% 29.92 in 10.0 mi WSW 13.8 mph 19.6 mph N/A   Clear
5:53 PM 70.0 °F 48.9 °F 47% 29.91 in 10.0 mi WNW 8.1 mph - N/A   Partly Cloudy
7:53 PM 64.9 °F 48.0 °F 54% 29.92 in 10.0 mi West 4.6 mph - N/A   Clear
8:53 PM 60.1 °F 46.0 °F 60% 29.92 in 10.0 mi North 4.6 mph - N/A   Clear
9:53 PM 55.9 °F 46.0 °F 69% 29.94 in 10.0 mi NE 4.6 mph - N/A   Clear
10:53 PM 55.9 °F 46.0 °F 69% 29.93 in 10.0 mi NE 4.6 mph - N/A   Scattered Clouds
11:53 PM 53.1 °F 46.0 °F 77% 29.92 in 10.0 mi NE 10.4 mph - N/A   Partly Cloudy